User: anonymous   Login
Location: Hamburg
(53.5500°N, 10.0000°E)
Time: 18:39:00
(UTC+02:00)
Language:

Iridium 10 - Orbit

View from above orbital plane
View from above orbital plane
View from above satellite
View from above satellite

Ground track
Ground track

The orbit data is extracted from the following two-line orbital elements,

1 24839U 97030D   17142.76446586 +.00000109 +00000-0 +31749-4 0  9994
2 24839 086.3962 000.7079 0002120 087.8848 318.7033 14.34218827043296
Epoch (UTC): 22 May 2017 18:20:49
Eccentricity: 0.0002120
inclination: 86.3962°
perigee height: 776 km
apogee height: 779 km
right ascension of ascending node: 0.7079°
argument of perigee: 87.8848°
revolutions per day: 14.34218827
mean anomaly at epoch: 318.7033°
orbit number at epoch: 4329

The dashed part of the orbit path shows where the satellite is in the earth's shadow,  

DLR